Joshua Tree, CA

8:02 PM PST on December 08, 2016 (GMT -0800)
Twentynine Palms Expeditionary Air Field

Weather History for KNXP - July, 2013

Change the Weather History Date:

Tuesday, July 2, 2013

  Actual Average Record
Temperature  
Mean Temperature 96 °F -  
Max Temperature 109 °F 99 °F 109 °F (1996)
Min Temperature 84 °F 72 °F 70 °F (1997)
Cooling Degree Days 31    
Growing Degree Days 46 (Base 50)    
Moisture  
Dew Point 44 °F    
Average Humidity 17    
Maximum Humidity 22    
Minimum Humidity 10    
Precipitation  
Precipitation 0.00 in - - ()
Sea Level Pressure  
Sea Level Pressure 29.85 in    
Wind  
Wind Speed 9 mph (West)    
Max Wind Speed 23 mph    
Max Gust Speed 31 mph    
Visibility 10 miles    
Events Thunderstorm    
Averages and records for this station are not official NWS values.
T = Trace of Precipitation, MM = Missing Value Source: NWS Daily Summary

Daily Weather History Graph

Daily Weather History Graph

Search for Another Location

Airport or City:

Trip Planner

Search our weather history database for the weather conditions in past years. The results will help you decide how hot, cold, wet, or windy it might be!

Date:

Astronomy

Jul. 02, 2013 Rise Set
Actual Time 5:36 AM PDT 8:00 PM PDT
Civil Twilight 5:07 AM PDT 8:29 PM PDT
Nautical Twilight 4:31 AM PDT 9:05 PM PDT
Astronomical Twilight 3:52 AM PDT 9:44 PM PDT
Moon 1:34 AM PDT (7/2) 3:24 PM PDT (7/2)
Length of Visible Light 15h 22m
Length of Day
14h 23m
Waning Crescent, 25% of the Moon is Illuminated
Jul 2
Waning Crescent
Jul 8
New
Jul 15
First Quarter
Jul 22
Full
Jul 29
Last Quarter

Hourly Weather History & Observations

Time (PDT) Temp. Heat Index Dew Point Humidity Pressure Visibility Wind Dir Wind Speed Gust Speed Precip Events Conditions
12:56 AM 91.0 °F - 44.1 °F 20% 29.81 in 10.0 mi West 9.2 mph - N/A   Clear
1:56 AM 89.1 °F - 43.0 °F 20% 29.81 in 10.0 mi West 11.5 mph - N/A   Clear
2:56 AM 88.0 °F - 43.0 °F 21% 29.81 in 10.0 mi West 11.5 mph - N/A   Clear
3:56 AM 84.9 °F - 42.1 °F 22% 29.82 in 10.0 mi North 4.6 mph - N/A   Clear
4:56 AM 84.9 °F - 42.1 °F 22% 29.83 in 10.0 mi NW 5.8 mph - N/A   Clear
5:40 AM 87.8 °F - 42.8 °F 21% 29.95 in 10.0 mi NNW 9.2 mph - N/A   Clear
5:56 AM 89.1 °F - 41.0 °F 19% 29.83 in 10.0 mi North 5.8 mph 23.0 mph N/A   Clear
6:16 AM 89.6 °F - 41.0 °F 18% 29.98 in 10.0 mi WNW 3.5 mph - N/A Thunderstorm Thunderstorm
6:32 AM 89.6 °F - 41.0 °F 18% 29.98 in 10.0 mi West 6.9 mph - N/A   Clear
6:56 AM 91.0 °F - 41.0 °F 17% 29.85 in 10.0 mi WNW 5.8 mph - 0.00 in   Clear
7:56 AM 93.9 °F - 41.0 °F 16% 29.87 in 10.0 mi West 3.5 mph - N/A   Scattered Clouds
8:24 AM 96.8 °F - 39.2 °F 14% 30.01 in 9.0 mi WSW 4.6 mph - N/A Thunderstorm Scattered Clouds
8:56 AM 95.0 °F - 41.0 °F 15% 29.88 in 10.0 mi Calm Calm - N/A   Scattered Clouds
9:56 AM 98.1 °F - 39.9 °F 13% 29.91 in 10.0 mi ESE 4.6 mph - N/A   Scattered Clouds
10:56 AM 100.9 °F - 45.0 °F 15% 29.91 in 10.0 mi SE 9.2 mph - N/A   Scattered Clouds
11:25 AM 100.4 °F 98.4 °F 53.6 °F 21% 30.04 in 10.0 mi SW 23.0 mph 31.1 mph N/A   Scattered Clouds
11:56 AM 102.0 °F 100.1 °F 54.0 °F 20% 29.90 in 10.0 mi WSW 21.9 mph - N/A   Scattered Clouds
12:56 PM 102.0 °F - 50.0 °F 17% 29.88 in 10.0 mi SW 17.3 mph - N/A   Scattered Clouds
1:56 PM 102.0 °F - 50.0 °F 17% 29.85 in 10.0 mi WSW 9.2 mph - N/A   Scattered Clouds
2:56 PM 106.0 °F - 46.0 °F 13% 29.80 in 10.0 mi Calm Calm - N/A   Scattered Clouds
3:56 PM 108.0 °F - 45.0 °F 12% 29.78 in 10.0 mi SSW 8.1 mph - N/A   Scattered Clouds
4:56 PM 107.1 °F - 46.0 °F 13% 29.75 in 10.0 mi SW 8.1 mph - N/A   Clear
5:56 PM 108.0 °F - 41.0 °F 10% 29.73 in 10.0 mi West 12.7 mph - N/A   Clear
6:03 PM 107.6 °F - 41.0 °F 10% 29.87 in 10.0 mi West 11.5 mph - N/A   Clear
6:56 PM 105.1 °F - 44.1 °F 13% 29.74 in 10.0 mi WSW 15.0 mph 25.3 mph N/A   Clear
7:56 PM 100.0 °F - 46.0 °F 16% 29.76 in 10.0 mi WSW 15.0 mph - N/A   Clear
8:56 PM 97.0 °F - 46.0 °F 18% 29.78 in 10.0 mi WSW 10.4 mph - N/A   Clear
9:56 PM 96.1 °F - 42.1 °F 15% 29.81 in 10.0 mi WNW 10.4 mph 16.1 mph N/A   Clear
10:56 PM 95.0 °F - 42.1 °F 16% 29.81 in 10.0 mi Variable 4.6 mph - N/A   Clear
11:56 PM 93.9 °F - 44.1 °F 18% 29.81 in 10.0 mi Variable 6.9 mph - N/A   Clear